SCP
0 0 0 0 0 0 0 0 0 0 0 0 0 0 0 0 0 0 0 0 0 0 0 0 0 0 0 0 0 0 0 0 0 0 0 0 0 0 0 0 0 0 0
0 0 0 0 0 0 0 0 0 0 0 0 0 0 0 0 0 0 0 0 0 0 0 0 0 0 0 0 0 0 0 0 0 0 0 0 0 0 0 0 0 0 0
0 0 0 0 0 0 0 0 0 0 0 0 0 0 0 0 0 0 0 0 0 0 0 0 0 0 0 0 0 0 0 0 0 0 0 0 0 0 0 0 0 0 0
0 0 0 0 0 0 0 0 0 1 1 0 0 0 0 0 0 0 0 0 0 0 0 0 0 0 0 0 0 0 0 0 0 0 0 0 0 0 0 0 0 0 0
0 0 0 0 0 0 0 0 0 1 1 1 0 0 0 0 0 0 0 0 0 0 0 0 0 0 0 0 0 0 0 0 0 0 0 0 0 0 0 0 0 0 0
0 0 0 0 0 0 0 0 0 1 1 1 1 1 0 0 0 0 0 0 0 0 0 0 0 0 0 0 0 0 0 0 0 0 0 0 0 0 0 0 0 0 0
0 0 0 0 0 0 0 0 0 1 1 1 1 1 1 1 0 0 0 0 0 0 0 0 0 0 0 0 0 0 0 0 0 0 0 0 0 0 0 0 0 0 0
0 0 0 0 0 0 0 0 1 1 1 1 1 1 1 1 1 1 0 0 0 0 0 0 0 0 0 0 0 0 0 0 0 0 0 0 0 0 0 0 0 0 0
0 0 0 0 0 1 1 1 1 1 1 1 1 1 1 1 1 1 1 0 0 0 0 0 0 0 0 0 0 0 0 0 0 0 0 0 0 0 0 0 0 0 0
0 0 0 1 1 1 1 1 1 1 1 1 1 1 1 1 1 1 1 1 1 1 1 1 0 0 0 0 0 0 0 0 0 0 0 0 0 0 0 0 0 0 0
1 1 1 1 1 1 1 1 1 1 1 1 1 1 1 1 1 1 1 1 1 1 1 1 1 0 0 0 0 0 0 0 0 0 0 0 0 0 0 0 0 0 0
0 0 1 1 1 1 1 1 1 1 1 1 1 1 1 1 1 1 1 1 1 1 1 1 1 0 0 0 0 0 0 0 0 0 0 0 0 0 0 0 0 0 0
0 0 1 1 1 1 1 1 1 1 1 1 1 1 1 1 1 1 1 1 1 1 1 1 1 0 0 0 0 0 0 0 0 0 0 0 0 0 0 0 0 0 0
1 1 1 1 1 1 1 1 1 1 1 1 1 1 1 1 1 1 1 1 1 1 1 1 0 0 0 0 0 0 0 0 0 0 0 0 0 0 0 0 0 0 0
1 1 1 1 1 1 1 1 1 1 1 1 1 1 1 1 1 1 1 1 1 1 0 0 0 0 0 0 0 0 0 0 0 0 0 0 0 0 0 0 0 0 0
1 1 1 1 1 1 1 1 1 1 1 1 1 1 1 1 1 1 1 1 0 0 0 0 0 0 0 0 0 0 0 0 0 0 0 0 0 0 0 0 0 0 0
1 1 1 1 1 1 1 1 1 1 1 1 1 1 1 1 1 1 1 0 0 0 0 0 0 0 0 0 0 0 0 0 0 0 0 0 0 0 0 0 0 0 0
1 1 1 1 1 1 1 1 1 1 1 1 1 1 1 1 1 1 0 0 0 0 0 0 0 0 0 0 0 0 0 0 0 0 0 0 0 0 0 0 0 0 0
1 1 1 1 1 1 1 1 1 1 1 1 1 1 1 1 1 1 1 0 0 0 0 0 0 0 0 0 0 0 0 0 0 0 0 0 0 0 0 0 0 0 0
1 1 1 1 1 1 1 1 1 1 1 1 1 1 1 1 1 1 1 1 1 1 0 0 0 0 0 0 0 0 0 0 0 0 0 0 0 0 0 0 0 0 0
1 1 1 1 1 1 1 1 1 1 1 1 1 1 1 1 1 1 1 1 1 1 1 1 0 0 0 0 0 0 0 0 0 0 0 0 0 0 0 0 0 0 0
1 1 1 1 1 1 1 1 1 1 1 1 1 1 1 0 0 1 1 1 1 1 1 1 1 0 0 0 0 0 0 0 0 0 0 0 0 0 0 0 0 0 0
1 1 1 1 1 1 1 1 1 1 1 1 1 1 1 1 0 0 0 1 1 1 1 1 0 0 0 0 0 0 0 0 0 0 0 0 0 0 0 0 0 0 0
1 1 1 1 1 1 1 1 1 1 1 1 1 1 1 1 0 0 0 0 0 0 0 0 0 0 0 0 0 0 0 0 0 0 0 0 0 0 0 0 0 0 0
1 1 1 1 1 1 1 1 1 1 1 1 1 1 0 0 0 0 0 0 0 0 0 0 0 0 0 0 0 0 0 0 0 0 0 0 0 0 0 0 0 0 0
1 1 1 1 1 1 1 1 1 1 1 1 0 0 0 0 0 0 0 0 0 0 0 0 0 0 0 0 0 0 0 0 0 0 0 0 0 0 0 0 0 0 0
Wind_Speed
7 7 6 6 6 5 4 4 3 3 2 2 1 1 1 1 1 1 1 0 1 1 1 1 0 1 0 1 2 2 3 3 3 2 2 2 2 2 1 2 2 2 3
8 8 8 7 7 6 6 5 5 4 4 2 1 1 0 0 0 0 1 1 1 1 1 1 1 0 1 1 2 2 2 2 2 2 2 3 3 2 1 2 2 2 2
10 10 9 8 8 7 7 5 5 5 5 4 3 2 2 1 1 1 1 0 1 1 2 1 2 1 2 1 2 3 4 3 2 2 2 2 1 2 3 2 1 1 1
10 10 10 9 9 8 7 7 6 6 5 5 4 3 2 1 1 1 0 0 1 1 1 1 1 2 1 1 2 2 2 3 2 2 1 2 1 1 2 2 2 2 2
11 11 11 10 9 8 7 7 7 6 6 5 4 4 3 2 1 1 0 1 0 1 1 1 1 1 1 1 2 1 2 2 2 1 1 1 2 3 2 2 2 2 1
11 11 10 9 9 8 8 7 7 7 6 6 5 5 4 3 2 2 1 2 1 1 1 1 1 1 1 1 2 2 2 2 2 2 1 1 1 2 2 2 2 1 1
11 11 11 10 10 9 9 8 8 7 7 7 6 6 5 4 4 3 2 2 1 1 1 1 1 1 1 1 1 2 2 1 1 2 1 1 1 1 1 1 1 1 1
10 10 10 10 9 10 9 9 9 8 7 7 6 5 5 4 3 3 3 2 2 1 1 1 1 1 1 1 1 1 1 1 1 1 1 1 1 1 1 1 1 1 1
9 9 9 9 9 9 9 9 9 8 7 7 6 5 5 4 3 3 3 2 2 1 1 1 1 1 1 1 1 1 1 1 1 1 1 1 0 1 1 1 1 2 1
8 8 8 8 8 8 8 8 8 7 7 6 6 5 5 4 4 3 2 2 1 1 1 1 1 1 1 1 1 1 1 1 1 1 0 1 1 0 0 1 1 1 1
8 8 7 8 8 8 8 7 7 6 5 5 5 4 4 4 4 3 3 2 2 1 1 1 1 1 1 1 0 1 1 1 1 1 1 0 1 1 0 0 0 0 0
8 7 7 8 8 8 8 7 6 6 5 5 5 4 4 3 3 2 2 2 2 2 2 1 1 1 0 0 0 0 1 0 1 1 1 0 1 0 0 0 0 1 1
7 7 7 7 7 7 6 6 6 6 5 5 5 4 3 3 3 2 2 2 2 2 2 1 1 1 1 1 0 1 1 1 2 2 1 1 1 1 1 0 1 1 1
7 8 7 7 6 6 6 6 5 5 5 5 5 4 3 2 2 2 2 2 2 2 2 2 1 1 2 2 1 2 2 2 3 3 3 3 2 1 1 1 1 0 1
7 8 8 7 7 7 6 6 6 5 5 5 4 4 3 3 3 3 3 3 2 2 2 2 2 2 2 2 2 2 3 3 3 3 3 4 5 7 5 3 2 1 0
8 7 7 7 7 6 6 6 6 6 5 5 5 4 4 4 3 3 3 3 3 2 2 3 3 3 3 5 5 2 3 2 3 3 3 4 4 5 6 7 7 5 2
7 8 7 6 5 6 6 6 6 6 6 5 5 4 4 4 3 3 3 3 3 3 3 3 3 4 5 6 4 3 2 2 2 2 2 2 3 2 3 4 4 5 5
7 7 7 6 5 6 6 7 6 6 6 6 5 5 4 4 4 4 4 3 3 3 3 3 3 4 5 4 3 2 2 2 2 2 2 2 3 3 2 2 3 3 4
6 6 6 7 6 6 6 7 6 6 6 6 5 5 5 5 4 4 4 3 3 3 3 4 3 3 4 4 2 1 2 3 3 3 3 3 3 5 3 2 3 3 3
6 6 6 7 7 6 6 7 6 6 5 5 4 4 5 5 5 5 4 3 3 3 3 4 3 3 3 3 1 2 2 3 3 3 4 5 4 4 4 1 2 2 2
7 7 7 7 6 6 6 6 6 5 4 4 5 4 4 5 5 5 4 3 3 3 3 4 3 3 3 3 2 2 0 1 2 2 3 4 5 4 3 2 2 1 1
8 7 7 7 6 6 6 6 5 4 4 5 4 5 4 4 5 5 4 3 4 4 4 4 3 3 3 3 2 2 2 2 2 2 3 4 4 4 3 2 3 2 2
7 6 7 7 6 5 5 5 5 5 5 5 5 4 5 4 4 4 4 4 3 2 3 3 3 3 3 4 4 3 2 1 1 3 6 6 4 4 3 3 1 1 0
6 6 6 6 6 5 5 5 5 5 5 6 5 4 4 4 4 2 2 2 2 2 2 2 2 2 3 2 2 3 4 4 4 3 6 5 4 2 2 2 1 0 1
5 5 5 5 5 5 5 5 5 5 6 6 5 5 4 4 4 3 3 2 3 3 1 1 1 1 2 3 3 1 1 1 2 2 3 2 2 2 1 1 1 1 0
5 4 4 5 4 5 5 5 5 5 5 5 5 4 4 4 3 4 4 8 6 6 6 5 3 3 5 5 4 4 3 2 0 2 2 1 1 1 1 1 1 0 1
Wind_Direction
184 180 182 188 185 184 184 188 184 166 177 178 193 165 151 158 135 120 69 353 334 21 299 306 175 267 231 232 217 208 187 191 185 183 157 154 166 165 183 194 192 187 195
188 188 191 193 193 189 192 188 190 184 188 178 188 196 87 217 133 86 87 330 322 302 243 280 267 258 228 219 219 215 221 203 198 214 193 180 161 160 176 185 195 206 206
195 193 195 199 198 193 193 192 191 187 191 188 187 178 179 211 187 177 159 327 309 308 318 296 289 275 245 212 218 214 222 224 207 232 267 245 173 155 156 180 181 178 222
199 199 198 198 200 194 187 190 187 188 188 193 204 209 219 232 230 259 179 263 297 305 294 285 281 267 258 238 238 207 234 239 230 205 247 305 345 232 161 168 162 168 196
199 199 199 196 196 191 184 186 184 186 188 195 198 213 229 234 224 223 186 271 278 286 293 284 272 265 253 250 267 246 250 246 257 248 225 207 199 237 225 192 177 164 165
197 196 194 190 191 189 186 185 180 185 188 194 203 212 226 236 243 244 239 236 229 251 272 266 268 268 277 252 243 238 231 254 271 277 272 241 230 219 223 210 195 150 112
193 192 189 189 190 187 186 186 182 186 189 194 203 210 219 221 224 240 232 251 247 237 251 281 274 277 265 238 230 222 239 240 245 263 273 298 296 290 263 232 192 137 153
190 190 189 189 187 185 184 185 185 189 189 193 202 210 214 219 225 228 247 248 265 280 291 261 262 276 271 243 215 231 220 220 225 245 262 272 288 302 259 244 205 184 186
180 183 183 185 183 183 184 186 184 186 188 192 195 200 205 216 228 223 225 235 243 242 225 238 226 237 255 268 240 251 250 223 233 233 213 246 265 251 266 258 245 241 217
165 164 168 173 175 176 178 180 180 182 185 185 192 188 196 203 209 217 219 232 238 250 249 233 229 234 260 260 261 253 249 230 216 237 269 292 298 302 249 246 251 272 259
158 156 158 159 162 161 163 168 171 174 177 180 181 187 188 191 192 200 209 210 212 196 199 204 224 227 226 240 247 285 264 234 201 205 170 154 336 319 277 215 185 238 215
152 152 153 152 154 156 158 160 162 166 168 167 167 174 181 185 183 180 185 186 185 178 168 177 192 204 169 153 172 262 288 264 140 133 130 144 143 158 312 164 99 99 114
148 144 144 144 148 150 149 150 154 156 156 155 157 160 165 165 165 163 159 164 159 150 148 157 166 159 121 119 111 109 83 71 69 67 73 68 63 67 80 101 98 114 133
149 144 138 137 136 135 134 135 135 135 139 141 144 144 148 149 149 142 138 139 142 137 134 138 132 112 103 92 97 112 108 98 80 71 67 59 54 45 69 110 104 124 162
147 145 140 134 133 130 130 126 122 119 121 130 134 134 137 138 135 127 126 126 129 132 127 127 117 106 106 70 79 114 112 110 105 94 83 69 56 42 31 27 41 54 222
147 142 139 136 137 135 131 126 125 121 120 118 118 125 133 131 128 127 123 122 116 101 96 95 100 91 67 51 40 37 103 103 101 94 89 94 82 78 71 58 49 33 13
148 144 137 135 135 132 129 129 126 124 121 114 112 117 128 130 130 126 119 118 114 108 106 99 98 90 68 55 48 25 95 101 88 86 81 76 80 95 102 105 106 69 44
141 136 135 136 133 129 128 126 127 126 121 115 115 118 122 125 128 125 121 119 112 106 103 102 102 101 83 64 49 354 125 100 89 77 80 81 74 45 39 109 93 78 55
130 129 131 129 124 124 124 124 123 118 115 114 115 118 120 121 121 118 119 123 123 121 118 112 108 103 94 73 53 299 134 112 95 79 67 61 77 33 1 96 99 88 88
122 125 125 121 121 122 125 125 121 115 111 109 110 113 121 124 119 118 120 122 133 131 128 114 113 107 99 89 54 285 156 129 125 108 94 65 52 41 9 81 106 103 84
118 118 119 116 117 124 128 124 118 116 121 121 121 120 122 125 118 115 123 135 134 123 116 111 105 95 79 94 54 345 307 126 128 117 111 92 81 72 40 20 64 40 315
118 119 116 113 115 123 128 124 119 118 122 123 124 124 120 117 117 118 119 124 133 139 135 125 116 105 94 75 87 61 16 1 98 99 96 98 108 106 85 62 44 350 294
117 120 116 116 115 118 121 120 116 120 122 119 115 115 113 108 110 119 128 135 143 148 140 137 131 119 109 110 115 120 100 46 92 90 86 99 120 136 121 103 59 270 270
118 120 120 120 118 117 116 112 118 126 130 126 123 123 120 114 107 109 119 123 129 132 142 147 142 125 117 108 127 147 153 151 150 141 128 137 146 155 90 125 171 192 20
114 119 124 124 124 123 121 122 129 137 133 129 131 133 126 118 112 95 56 60 55 31 17 92 107 112 115 68 39 24 93 126 131 153 151 154 151 148 129 110 82 61 121
122 120 119 122 123 127 126 126 134 143 141 137 137 134 133 133 132 125 107 58 59 65 54 42 36 74 80 97 84 70 51 52 102 192 163 164 164 143 125 133 120 85 19